CZ-6A DEB, 54523

Orbit data source: Space-Track

CZ-6A DEB, 54523 is space debris in SSO originally from a launch on Fri, 11 Nov 2022 UTC launched from the Taiyaun Space Center, China (TSC). Debris objects in space refer to the collection of defunct objects orbiting the Earth. Examples of debris include non-operational satellites, rocket bodies, and fragments generated from explosions, collisions, or faulty payload assembly.

Loading next visibility...
Identifier
54523, 2022-151KB
Orbit
SSO
Country
Flag of CNCN / PRC
Related business
Manufacturer
SAST
Mission
Spacecraft
Bus & Motor
Unknown
Mass
Unknown
Launch date (UTC)
2022-11-11 (4 years ago)
Launch vehicle
Unknown
Launch site
Taiyaun Space Center, China (TSC)
Object type
Payload
Rocket body
Debris
Shape & HBR
Unknown shape, 0.1 m
Radar Cross Section
Medium (>0.1 m² and <1 m²)

Expand to show TLE details & history
Last TLE update: 2 days ago

TLE from 2 days ago
0 CZ-6A DEB
1 54523U 22151KB  26171.26593314  .00033222  00000-0  24784-2 0  9999
2 54523  98.7036 280.3852 0061678 193.2616 166.6986 15.01246983192449
Epoch: 2026-06-20T06:22Z
TLE epoch observation values (Epoch: 2026-06-20T06:22:56.623Z)
Latitude
-0.00009°
Longitude
-83.83374°
Altitude
607.761 km
Speed
7.533 km/s
True Right ascension
18h 41m 32s
True Declination
0° 00' 00"
Sunlit
Object was in full shadow at epoch
Visualization orbit readout
Latitude
Unknown
Longitude
Unknown
Altitude
Unknown
Speed
Unknown
Apparent Right ascension
Unknown
Apparent Declination
Unknown
Sunlit
N/A
Visualization observer readout
Local Sidereal Time
21:35:44
Azimuth
Unknown
Elevation
Unknown
Doppler factor
Unknown
Orbital elements
Apogee altitude
602.894 km
Perigee altitude
517.307 km
Semi-major axis
6,938.237 km
Eccentricity
0.00617
Inclination
98.7036°
RAAN
280.3852°
Arg. of periapsis
193.2616°
True anomaly
166.86°
Mean anomaly
166.6986°
Eccentric anomaly
166.77942°
Mean motion
3.75551 °/min
Orbital period
95.86 mins
BSTAR
0.0024784
Loading maneuver chart data...
Computing Atmospheric mass density...
Loading historical data...
Loading historical data...
Loading historical data...
Loading historical data...
Loading historical data...
Loading historical data...
Loading historical data...

Documentation

Showing up to 5 results
|